Regional Weather Roundup
Issued by NWS Goodland, KS

Home | Current Version | Previous Version | Graphics & Text | Print | Product List | Glossary On
Versions: 1 2 3 4 5 6 7 8 9 10 11 12 13 14 15 16 17 18 19 20 21 22 23 24 25 26 27 28 29 30 31 32 33 34 35 36 37 38 39 40 41 42 43 44 45 46 47 48 49 50
000
ASUS43 KGLD 210708
RWRGLD

GOODLAND FORECAST AREA HOURLY WEATHER ROUNDUP
NATIONAL WEATHER SERVICE GOODLAND KS
100 AM MDT SAT OCT 21 2017

...OFFICIAL OBSERVATIONS...

CITY           SKY/WX    TMP DP  RH WIND       PRES   REMARKS
GOODLAND KS    CLOUDY    56  44  64 S14       29.50S
HILL CITY KS   CLEAR     69  59  70 S24G39    29.53F
IMPERIAL NEB   CLOUDY    59  44  57 S8        29.44S
MCCOOK NEB     CLEAR     66  55  67 S20G38    29.45F
AKRON CO       CLOUDY    52  34  50 N25G32    29.57R
BURLINGTON CO  CLOUDY    58  33  39 S15       29.51F
LIMON CO       CLOUDY    55  26  32 W5        29.57S
$$

...UNOFFICIAL OBSERVATIONS...

CITY           SKY/WX    TMP DP  RH WIND       PRES   REMARKS
COLBY KS       CLEAR     63  52  67 S14G20    29.52S
LENORA KS        N/A     60  32  34 S6          N/A
NORTON KS      CLEAR     68  54  60 S20G26    29.50
SHARON SPRINGS   N/A     58  45  62 S17         N/A
TRENTON NEB      N/A     60  32  34 S6          N/A
YUMA CO        FAIR      59  23  25 NW28G35   29.52R
$$




USA.gov is the U.S. government's official web portal to all federal, state and local government web resources and services.